QPF
0.00 0.00 0.00 0.01 0.01 0.01 0.00 0.00 0.00 0.00 0.00 0.00 0.00 0.00 0.00 0.00 0.00 0.00 0.00 0.00 0.00 0.01 0.01 0.01 0.01 0.03 0.04 0.05 0.06 0.05 0.04 0.04 0.04 0.04 0.04 0.04 0.06 0.05 0.04 0.03 0.02 0.04 0.05 0.04 0.06 0.07 0.10 0.24 0.26
0.00 0.00 0.01 0.01 0.01 0.00 0.00 0.00 0.00 0.00 0.00 0.00 0.00 0.00 0.00 0.01 0.00 0.00 0.00 0.00 0.01 0.01 0.00 0.00 0.02 0.03 0.04 0.06 0.05 0.04 0.03 0.04 0.04 0.05 0.04 0.04 0.06 0.05 0.04 0.03 0.03 0.03 0.03 0.02 0.03 0.04 0.06 0.13 0.17
0.00 0.00 0.01 0.01 0.01 0.01 0.00 0.00 0.00 0.00 0.00 0.00 0.00 0.00 0.00 0.01 0.00 0.01 0.01 0.02 0.02 0.01 0.01 0.01 0.01 0.02 0.03 0.04 0.04 0.03 0.04 0.04 0.05 0.06 0.06 0.05 0.05 0.04 0.04 0.03 0.03 0.03 0.03 0.02 0.02 0.03 0.04 0.06 0.08
0.00 0.00 0.01 0.01 0.01 0.01 0.00 0.00 0.00 0.00 0.00 0.00 0.00 0.00 0.00 0.01 0.01 0.01 0.02 0.02 0.02 0.01 0.01 0.01 0.01 0.02 0.03 0.03 0.04 0.04 0.04 0.05 0.06 0.07 0.08 0.07 0.06 0.05 0.04 0.03 0.03 0.02 0.03 0.02 0.02 0.03 0.05 0.04 0.04
0.00 0.00 0.00 0.00 0.01 0.01 0.01 0.01 0.01 0.00 0.00 0.00 0.01 0.00 0.00 0.01 0.01 0.01 0.01 0.02 0.02 0.01 0.01 0.01 0.02 0.03 0.03 0.04 0.05 0.04 0.04 0.04 0.05 0.07 0.09 0.08 0.06 0.05 0.04 0.03 0.02 0.02 0.02 0.02 0.02 0.02 0.03 0.04 0.05
0.00 0.00 0.00 0.00 0.00 0.00 0.00 0.01 0.01 0.01 0.00 0.00 0.00 0.00 0.00 0.01 0.00 0.01 0.01 0.02 0.02 0.01 0.01 0.01 0.02 0.03 0.04 0.05 0.05 0.05 0.07 0.07 0.06 0.07 0.08 0.08 0.06 0.03 0.03 0.03 0.03 0.02 0.02 0.03 0.03 0.04 0.03 0.04 0.05
0.00 0.00 0.00 0.00 0.00 0.01 0.01 0.00 0.01 0.01 0.01 0.01 0.00 0.00 0.00 0.00 0.00 0.00 0.01 0.01 0.01 0.01 0.01 0.01 0.01 0.02 0.03 0.04 0.04 0.04 0.06 0.10 0.09 0.08 0.07 0.08 0.06 0.04 0.03 0.04 0.04 0.04 0.04 0.03 0.03 0.06 0.05 0.06 0.05
0.00 0.00 0.00 0.01 0.02 0.02 0.01 0.01 0.01 0.01 0.01 0.01 0.01 0.00 0.00 0.00 0.00 0.00 0.01 0.01 0.01 0.01 0.01 0.01 0.02 0.02 0.02 0.02 0.03 0.04 0.05 0.06 0.09 0.08 0.09 0.09 0.07 0.05 0.04 0.04 0.05 0.05 0.05 0.03 0.02 0.04 0.06 0.07 0.06
0.00 0.00 0.00 0.01 0.02 0.02 0.01 0.00 0.00 0.00 0.00 0.01 0.01 0.01 0.01 0.00 0.01 0.01 0.01 0.01 0.01 0.01 0.02 0.02 0.02 0.02 0.02 0.02 0.02 0.04 0.06 0.08 0.08 0.08 0.07 0.06 0.05 0.03 0.03 0.03 0.03 0.04 0.04 0.03 0.01 0.02 0.03 0.05 0.06
0.00 0.00 0.00 0.00 0.00 0.00 0.00 0.00 0.00 0.00 0.00 0.00 0.00 0.01 0.01 0.00 0.01 0.01 0.01 0.01 0.01 0.02 0.02 0.02 0.02 0.03 0.03 0.04 0.04 0.03 0.04 0.08 0.10 0.12 0.12 0.08 0.05 0.04 0.03 0.03 0.03 0.03 0.02 0.02 0.02 0.01 0.02 0.04 0.06
0.00 0.00 0.00 0.00 0.00 0.00 0.00 0.00 0.00 0.00 0.00 0.00 0.01 0.01 0.01 0.01 0.01 0.01 0.01 0.01 0.01 0.01 0.02 0.02 0.03 0.04 0.04 0.04 0.05 0.05 0.04 0.05 0.07 0.09 0.11 0.10 0.09 0.06 0.05 0.05 0.04 0.04 0.03 0.02 0.02 0.02 0.03 0.03 0.05
0.00 0.00 0.00 0.00 0.00 0.00 0.00 0.00 0.00 0.00 0.00 0.00 0.01 0.01 0.01 0.01 0.01 0.01 0.01 0.01 0.01 0.01 0.01 0.02 0.03 0.04 0.05 0.04 0.05 0.05 0.05 0.05 0.05 0.06 0.08 0.09 0.07 0.06 0.05 0.05 0.04 0.04 0.03 0.03 0.02 0.02 0.04 0.04 0.04
0.00 0.00 0.00 0.00 0.00 0.00 0.00 0.00 0.00 0.00 0.00 0.00 0.01 0.01 0.01 0.01 0.00 0.01 0.01 0.01 0.01 0.01 0.01 0.02 0.03 0.04 0.05 0.05 0.05 0.05 0.05 0.05 0.05 0.05 0.06 0.09 0.08 0.06 0.05 0.05 0.05 0.04 0.03 0.03 0.03 0.02 0.03 0.05 0.05
0.00 0.00 0.01 0.01 0.01 0.00 0.00 0.00 0.00 0.00 0.00 0.00 0.01 0.02 0.01 0.01 0.01 0.01 0.01 0.01 0.01 0.01 0.01 0.02 0.03 0.04 0.06 0.06 0.05 0.05 0.05 0.05 0.06 0.06 0.05 0.06 0.07 0.07 0.06 0.05 0.04 0.04 0.04 0.04 0.04 0.03 0.03 0.04 0.05
0.00 0.00 0.01 0.01 0.01 0.00 0.01 0.01 0.01 0.01 0.01 0.01 0.02 0.02 0.02 0.01 0.01 0.01 0.01 0.01 0.01 0.01 0.01 0.02 0.03 0.04 0.05 0.06 0.06 0.06 0.05 0.05 0.05 0.05 0.05 0.05 0.05 0.06 0.07 0.06 0.04 0.04 0.04 0.04 0.04 0.04 0.04 0.04 0.05
0.00 0.00 0.01 0.00 0.00 0.00 0.01 0.01 0.02 0.02 0.01 0.01 0.02 0.03 0.02 0.01 0.01 0.01 0.01 0.01 0.01 0.01 0.01 0.01 0.02 0.02 0.03 0.04 0.04 0.05 0.05 0.05 0.04 0.04 0.04 0.04 0.05 0.05 0.05 0.05 0.05 0.05 0.04 0.04 0.03 0.03 0.04 0.04 0.05
0.00 0.00 0.00 0.00 0.00 0.00 0.00 0.01 0.01 0.01 0.01 0.01 0.02 0.04 0.03 0.02 0.01 0.01 0.01 0.01 0.01 0.01 0.01 0.01 0.02 0.02 0.02 0.02 0.03 0.03 0.04 0.05 0.05 0.03 0.03 0.03 0.04 0.04 0.05 0.05 0.04 0.05 0.05 0.04 0.03 0.03 0.03 0.04 0.04
0.00 0.00 0.00 0.00 0.00 0.00 0.00 0.00 0.00 0.00 0.00 0.00 0.01 0.03 0.03 0.03 0.02 0.02 0.02 0.01 0.02 0.01 0.01 0.01 0.02 0.02 0.02 0.02 0.02 0.02 0.03 0.05 0.06 0.06 0.04 0.03 0.03 0.03 0.03 0.04 0.04 0.04 0.04 0.05 0.05 0.03 0.03 0.03 0.04
0.00 0.00 0.00 0.00 0.00 0.00 0.00 0.00 0.00 0.00 0.00 0.00 0.00 0.01 0.02 0.02 0.02 0.02 0.03 0.02 0.02 0.02 0.02 0.01 0.02 0.01 0.02 0.02 0.02 0.02 0.02 0.03 0.06 0.06 0.05 0.04 0.03 0.02 0.02 0.03 0.03 0.03 0.03 0.03 0.04 0.04 0.04 0.04 0.04
0.01 0.01 0.01 0.00 0.00 0.00 0.00 0.00 0.00 0.00 0.01 0.01 0.01 0.01 0.01 0.01 0.02 0.02 0.03 0.03 0.03 0.03 0.03 0.03 0.02 0.02 0.02 0.02 0.02 0.01 0.02 0.01 0.02 0.04 0.04 0.04 0.03 0.02 0.02 0.01 0.02 0.03 0.03 0.03 0.04 0.04 0.05 0.05 0.05
0.01 0.01 0.01 0.00 0.00 0.01 0.01 0.00 0.00 0.00 0.00 0.00 0.01 0.01 0.01 0.01 0.01 0.02 0.03 0.04 0.05 0.04 0.04 0.04 0.03 0.04 0.03 0.03 0.02 0.02 0.02 0.02 0.01 0.01 0.02 0.03 0.03 0.03 0.02 0.01 0.01 0.02 0.03 0.03 0.03 0.04 0.05 0.05 0.05
0.01 0.00 0.01 0.01 0.02 0.02 0.01 0.01 0.00 0.00 0.00 0.00 0.00 0.01 0.01 0.01 0.02 0.02 0.03 0.04 0.05 0.05 0.04 0.03 0.03 0.03 0.04 0.04 0.04 0.03 0.02 0.02 0.02 0.01 0.01 0.02 0.02 0.02 0.02 0.01 0.01 0.01 0.02 0.02 0.03 0.04 0.05 0.07 0.07
0.01 0.01 0.01 0.02 0.02 0.03 0.02 0.01 0.00 0.00 0.00 0.01 0.01 0.01 0.01 0.01 0.02 0.03 0.04 0.04 0.05 0.05 0.04 0.03 0.03 0.03 0.03 0.04 0.04 0.05 0.03 0.02 0.02 0.02 0.01 0.01 0.01 0.01 0.01 0.01 0.01 0.01 0.01 0.01 0.02 0.04 0.06 0.07 0.07
0.02 0.02 0.02 0.02 0.03 0.03 0.01 0.01 0.00 0.01 0.01 0.00 0.01 0.01 0.01 0.01 0.02 0.03 0.04 0.03 0.03 0.03 0.04 0.03 0.03 0.03 0.03 0.03 0.03 0.06 0.07 0.05 0.02 0.02 0.01 0.01 0.01 0.01 0.01 0.01 0.01 0.01 0.01 0.01 0.01 0.02 0.03 0.07 0.09
0.02 0.03 0.03 0.03 0.02 0.01 0.00 0.00 0.01 0.01 0.01 0.01 0.01 0.01 0.01 0.01 0.02 0.02 0.02 0.02 0.02 0.03 0.03 0.03 0.03 0.03 0.03 0.02 0.02 0.02 0.04 0.08 0.08 0.06 0.03 0.02 0.02 0.01 0.01 0.01 0.01 0.01 0.01 0.01 0.01 0.01 0.02 0.03 0.05
0.01 0.02 0.03 0.02 0.01 0.00 0.00 0.01 0.00 0.00 0.01 0.00 0.01 0.01 0.01 0.01 0.02 0.02 0.02 0.02 0.02 0.03 0.03 0.03 0.03 0.02 0.02 0.02 0.02 0.02 0.02 0.03 0.06 0.08 0.08 0.06 0.04 0.04 0.04 0.03 0.03 0.02 0.02 0.01 0.01 0.01 0.01 0.01 0.02
0.02 0.01 0.01 0.02 0.02 0.01 0.01 0.01 0.00 0.00 0.01 0.00 0.00 0.01 0.01 0.01 0.01 0.01 0.02 0.02 0.02 0.02 0.02 0.02 0.02 0.02 0.02 0.02 0.02 0.02 0.02 0.01 0.01 0.02 0.03 0.05 0.05 0.04 0.04 0.06 0.07 0.06 0.05 0.04 0.03 0.03 0.02 0.02 0.02
0.01 0.01 0.02 0.03 0.03 0.01 0.01 0.00 0.00 0.00 0.00 0.01 0.01 0.01 0.01 0.01 0.01 0.01 0.01 0.01 0.02 0.02 0.02 0.02 0.02 0.02 0.02 0.02 0.01 0.02 0.02 0.02 0.01 0.01 0.01 0.01 0.02 0.03 0.03 0.03 0.03 0.03 0.03 0.03 0.03 0.03 0.03 0.03 0.03
0.00 0.01 0.01 0.02 0.02 0.01 0.01 0.00 0.00 0.00 0.01 0.01 0.01 0.01 0.01 0.01 0.01 0.01 0.01 0.01 0.01 0.02 0.01 0.01 0.01 0.01 0.01 0.01 0.01 0.01 0.01 0.02 0.01 0.01 0.01 0.00 0.01 0.01 0.01 0.01 0.02 0.02 0.02 0.02 0.02 0.03 0.03 0.03 0.04
0.00 0.01 0.01 0.02 0.03 0.01 0.01 0.01 0.01 0.01 0.01 0.01 0.01 0.01 0.01 0.01 0.01 0.01 0.01 0.01 0.01 0.01 0.01 0.01 0.01 0.01 0.01 0.01 0.01 0.01 0.01 0.01 0.01 0.01 0.01 0.01 0.00 0.00 0.01 0.01 0.01 0.01 0.01 0.02 0.02 0.03 0.03 0.04 0.04
MSLP
1016.30 1016.56 1016.95 1017.45 1017.98 1018.48 1018.89 1019.14 1019.20 1019.09 1018.88 1018.63 1018.46 1018.45 1018.63 1019.02 1019.57 1020.19 1020.75 1021.17 1021.36 1021.30 1021.01 1020.56 1020.03 1019.53 1019.13 1018.88 1018.79 1018.84 1018.99 1019.20 1019.44 1019.69 1019.93 1020.17 1020.41 1020.66 1020.89 1021.10 1021.27 1021.39 1021.46 1021.49 1021.49 1021.49 1021.49 1021.50 1021.50
1016.61 1016.90 1017.31 1017.79 1018.29 1018.73 1019.05 1019.22 1019.21 1019.06 1018.84 1018.65 1018.58 1018.71 1019.06 1019.61 1020.29 1020.99 1021.57 1021.94 1022.03 1021.83 1021.39 1020.78 1020.12 1019.52 1019.07 1018.79 1018.70 1018.77 1018.95 1019.20 1019.47 1019.75 1020.02 1020.30 1020.58 1020.86 1021.13 1021.37 1021.58 1021.73 1021.82 1021.88 1021.91 1021.93 1021.96 1021.99 1022.01
1017.00 1017.30 1017.67 1018.09 1018.50 1018.83 1019.05 1019.11 1019.03 1018.86 1018.67 1018.57 1018.64 1018.93 1019.46 1020.18 1020.99 1021.77 1022.38 1022.72 1022.74 1022.44 1021.88 1021.16 1020.41 1019.74 1019.23 1018.93 1018.82 1018.88 1019.06 1019.31 1019.58 1019.86 1020.13 1020.41 1020.71 1021.01 1021.30 1021.58 1021.81 1021.99 1022.12 1022.21 1022.27 1022.33 1022.38 1022.44 1022.48
1017.43 1017.71 1018.02 1018.34 1018.63 1018.82 1018.91 1018.87 1018.73 1018.55 1018.42 1018.42 1018.64 1019.10 1019.80 1020.68 1021.62 1022.47 1023.12 1023.46 1023.45 1023.10 1022.49 1021.73 1020.93 1020.23 1019.70 1019.37 1019.23 1019.26 1019.41 1019.61 1019.84 1020.09 1020.33 1020.60 1020.89 1021.19 1021.50 1021.79 1022.05 1022.26 1022.41 1022.53 1022.62 1022.71 1022.80 1022.89 1022.95
1017.87 1018.11 1018.35 1018.55 1018.70 1018.75 1018.70 1018.57 1018.39 1018.23 1018.17 1018.28 1018.64 1019.26 1020.11 1021.11 1022.14 1023.06 1023.75 1024.12 1024.12 1023.79 1023.19 1022.45 1021.68 1021.00 1020.47 1020.14 1019.98 1019.96 1020.05 1020.18 1020.35 1020.53 1020.73 1020.95 1021.22 1021.51 1021.82 1022.12 1022.39 1022.61 1022.79 1022.92 1023.04 1023.15 1023.26 1023.36 1023.44
1018.28 1018.48 1018.64 1018.73 1018.75 1018.68 1018.53 1018.34 1018.14 1018.02 1018.04 1018.26 1018.74 1019.48 1020.42 1021.50 1022.58 1023.54 1024.26 1024.66 1024.71 1024.45 1023.94 1023.29 1022.62 1022.01 1021.53 1021.21 1021.04 1020.98 1021.00 1021.06 1021.15 1021.25 1021.38 1021.56 1021.78 1022.05 1022.34 1022.63 1022.90 1023.13 1023.31 1023.45 1023.56 1023.67 1023.78 1023.89 1023.97
1018.62 1018.79 1018.89 1018.89 1018.82 1018.67 1018.47 1018.26 1018.10 1018.04 1018.15 1018.47 1019.04 1019.84 1020.82 1021.91 1022.99 1023.94 1024.66 1025.10 1025.23 1025.07 1024.70 1024.20 1023.66 1023.17 1022.79 1022.51 1022.35 1022.27 1022.23 1022.23 1022.24 1022.27 1022.34 1022.45 1022.63 1022.86 1023.11 1023.38 1023.62 1023.83 1023.99 1024.11 1024.20 1024.29 1024.38 1024.46 1024.54
1018.89 1019.04 1019.09 1019.04 1018.92 1018.75 1018.56 1018.40 1018.31 1018.35 1018.56 1018.97 1019.59 1020.41 1021.37 1022.40 1023.42 1024.32 1025.02 1025.48 1025.68 1025.64 1025.42 1025.09 1024.73 1024.39 1024.12 1023.92 1023.79 1023.70 1023.64 1023.59 1023.55 1023.52 1023.54 1023.60 1023.72 1023.90 1024.11 1024.32 1024.52 1024.68 1024.79 1024.87 1024.92 1024.96 1025.01 1025.06 1025.11
1019.08 1019.21 1019.24 1019.19 1019.08 1018.94 1018.82 1018.76 1018.79 1018.95 1019.27 1019.76 1020.41 1021.20 1022.09 1023.02 1023.93 1024.73 1025.38 1025.84 1026.10 1026.17 1026.10 1025.95 1025.75 1025.57 1025.42 1025.30 1025.22 1025.16 1025.10 1025.03 1024.97 1024.91 1024.89 1024.90 1024.97 1025.08 1025.22 1025.37 1025.50 1025.59 1025.65 1025.66 1025.66 1025.65 1025.64 1025.65 1025.66
1019.21 1019.33 1019.36 1019.32 1019.26 1019.21 1019.21 1019.30 1019.49 1019.80 1020.24 1020.79 1021.45 1022.19 1022.98 1023.78 1024.54 1025.23 1025.80 1026.23 1026.52 1026.68 1026.74 1026.73 1026.68 1026.63 1026.58 1026.55 1026.53 1026.50 1026.47 1026.42 1026.35 1026.29 1026.25 1026.23 1026.24 1026.29 1026.34 1026.40 1026.45 1026.46 1026.44 1026.39 1026.33 1026.27 1026.21 1026.18 1026.16
1019.30 1019.39 1019.42 1019.43 1019.44 1019.51 1019.67 1019.93 1020.30 1020.78 1021.34 1021.97 1022.63 1023.32 1024.00 1024.65 1025.27 1025.82 1026.30 1026.69 1026.99 1027.21 1027.35 1027.45 1027.50 1027.54 1027.57 1027.59 1027.62 1027.63 1027.63 1027.62 1027.58 1027.54 1027.50 1027.45 1027.41 1027.38 1027.35 1027.31 1027.26 1027.19 1027.10 1027.00 1026.89 1026.79 1026.70 1026.64 1026.59
1019.34 1019.41 1019.45 1019.49 1019.59 1019.79 1020.11 1020.56 1021.12 1021.77 1022.46 1023.16 1023.83 1024.47 1025.05 1025.58 1026.06 1026.49 1026.88 1027.22 1027.52 1027.77 1027.96 1028.11 1028.21 1028.29 1028.35 1028.40 1028.45 1028.50 1028.53 1028.56 1028.57 1028.56 1028.52 1028.46 1028.38 1028.27 1028.15 1028.01 1027.87 1027.72 1027.57 1027.43 1027.31 1027.19 1027.10 1027.03 1026.98
1019.37 1019.40 1019.43 1019.50 1019.68 1019.99 1020.47 1021.09 1021.84 1022.65 1023.47 1024.24 1024.94 1025.55 1026.06 1026.49 1026.86 1027.20 1027.52 1027.83 1028.11 1028.36 1028.57 1028.73 1028.84 1028.91 1028.95 1028.99 1029.04 1029.09 1029.16 1029.23 1029.29 1029.32 1029.30 1029.23 1029.10 1028.93 1028.72 1028.50 1028.27 1028.06 1027.88 1027.72 1027.60 1027.50 1027.43 1027.38 1027.34
1019.37 1019.35 1019.36 1019.44 1019.67 1020.08 1020.69 1021.47 1022.37 1023.34 1024.28 1025.14 1025.88 1026.48 1026.95 1027.32 1027.63 1027.91 1028.19 1028.47 1028.74 1028.98 1029.18 1029.33 1029.40 1029.42 1029.42 1029.41 1029.43 1029.47 1029.55 1029.66 1029.76 1029.82 1029.83 1029.76 1029.60 1029.38 1029.10 1028.81 1028.52 1028.26 1028.06 1027.91 1027.81 1027.75 1027.72 1027.70 1027.69
1019.36 1019.28 1019.24 1019.32 1019.57 1020.05 1020.76 1021.66 1022.71 1023.81 1024.88 1025.83 1026.62 1027.24 1027.70 1028.05 1028.33 1028.58 1028.83 1029.10 1029.37 1029.61 1029.79 1029.90 1029.93 1029.89 1029.82 1029.74 1029.70 1029.72 1029.80 1029.92 1030.05 1030.16 1030.19 1030.13 1029.96 1029.70 1029.38 1029.02 1028.69 1028.41 1028.20 1028.07 1028.00 1027.99 1028.00 1028.02 1028.03
1019.32 1019.17 1019.08 1019.13 1019.39 1019.90 1020.69 1021.70 1022.88 1024.11 1025.29 1026.34 1027.21 1027.87 1028.34 1028.69 1028.95 1029.19 1029.43 1029.70 1029.96 1030.19 1030.36 1030.45 1030.43 1030.33 1030.18 1030.04 1029.95 1029.92 1029.98 1030.11 1030.27 1030.40 1030.46 1030.41 1030.25 1029.97 1029.62 1029.24 1028.88 1028.59 1028.38 1028.27 1028.23 1028.25 1028.30 1028.34 1028.37
1019.25 1019.03 1018.88 1018.88 1019.13 1019.67 1020.52 1021.63 1022.93 1024.29 1025.60 1026.76 1027.71 1028.43 1028.93 1029.28 1029.53 1029.75 1029.98 1030.24 1030.50 1030.73 1030.89 1030.95 1030.90 1030.76 1030.56 1030.36 1030.21 1030.15 1030.18 1030.30 1030.47 1030.62 1030.70 1030.68 1030.53 1030.26 1029.91 1029.52 1029.15 1028.85 1028.64 1028.54 1028.52 1028.55 1028.60 1028.65 1028.67
1019.16 1018.87 1018.64 1018.59 1018.82 1019.38 1020.29 1021.50 1022.92 1024.43 1025.88 1027.17 1028.22 1029.01 1029.54 1029.89 1030.12 1030.31 1030.51 1030.74 1030.98 1031.20 1031.35 1031.41 1031.35 1031.19 1030.96 1030.72 1030.53 1030.43 1030.43 1030.53 1030.69 1030.85 1030.96 1030.96 1030.83 1030.59 1030.25 1029.87 1029.50 1029.20 1028.99 1028.88 1028.86 1028.88 1028.92 1028.94 1028.93
1019.05 1018.68 1018.37 1018.27 1018.47 1019.05 1020.03 1021.35 1022.92 1024.59 1026.22 1027.65 1028.82 1029.68 1030.25 1030.59 1030.78 1030.92 1031.05 1031.22 1031.42 1031.62 1031.77 1031.83 1031.77 1031.61 1031.38 1031.13 1030.91 1030.77 1030.74 1030.81 1030.95 1031.11 1031.22 1031.25 1031.15 1030.94 1030.62 1030.27 1029.92 1029.62 1029.40 1029.27 1029.22 1029.21 1029.21 1029.19 1029.13
1018.95 1018.49 1018.10 1017.94 1018.12 1018.74 1019.79 1021.24 1022.98 1024.83 1026.64 1028.25 1029.55 1030.49 1031.10 1031.42 1031.56 1031.61 1031.65 1031.74 1031.87 1032.02 1032.15 1032.22 1032.18 1032.04 1031.83 1031.57 1031.34 1031.17 1031.10 1031.13 1031.23 1031.37 1031.48 1031.51 1031.44 1031.26 1030.99 1030.67 1030.34 1030.05 1029.82 1029.67 1029.58 1029.53 1029.48 1029.40 1029.29
1018.89 1018.33 1017.86 1017.64 1017.81 1018.46 1019.61 1021.20 1023.11 1025.16 1027.17 1028.96 1030.41 1031.45 1032.09 1032.40 1032.47 1032.42 1032.35 1032.32 1032.36 1032.45 1032.55 1032.61 1032.60 1032.49 1032.29 1032.05 1031.80 1031.60 1031.48 1031.46 1031.51 1031.60 1031.68 1031.72 1031.67 1031.52 1031.29 1031.00 1030.70 1030.42 1030.19 1030.02 1029.90 1029.80 1029.70 1029.58 1029.42
1018.89 1018.23 1017.69 1017.43 1017.59 1018.28 1019.51 1021.24 1023.32 1025.57 1027.78 1029.75 1031.35 1032.49 1033.18 1033.47 1033.48 1033.33 1033.14 1032.99 1032.92 1032.93 1032.99 1033.04 1033.04 1032.95 1032.78 1032.54 1032.28 1032.05 1031.87 1031.77 1031.75 1031.78 1031.82 1031.84 1031.80 1031.68 1031.49 1031.24 1030.97 1030.71 1030.48 1030.29 1030.14 1030.02 1029.89 1029.74 1029.56
1018.98 1018.25 1017.65 1017.35 1017.51 1018.24 1019.55 1021.39 1023.62 1026.04 1028.42 1030.55 1032.29 1033.53 1034.27 1034.57 1034.53 1034.30 1034.00 1033.74 1033.57 1033.50 1033.51 1033.53 1033.53 1033.45 1033.29 1033.05 1032.77 1032.49 1032.24 1032.06 1031.96 1031.92 1031.90 1031.89 1031.84 1031.74 1031.57 1031.36 1031.12 1030.88 1030.66 1030.47 1030.31 1030.18 1030.04 1029.89 1029.71
1019.18 1018.41 1017.78 1017.46 1017.63 1018.39 1019.75 1021.66 1023.99 1026.52 1029.02 1031.28 1033.13 1034.46 1035.26 1035.58 1035.53 1035.25 1034.89 1034.54 1034.29 1034.15 1034.10 1034.10 1034.07 1033.99 1033.83 1033.57 1033.26 1032.92 1032.61 1032.34 1032.15 1032.02 1031.94 1031.89 1031.82 1031.72 1031.57 1031.39 1031.18 1030.96 1030.75 1030.57 1030.41 1030.27 1030.15 1030.01 1029.86
1019.50 1018.73 1018.10 1017.80 1017.99 1018.76 1020.14 1022.07 1024.42 1026.99 1029.55 1031.86 1033.78 1035.18 1036.04 1036.41 1036.38 1036.10 1035.72 1035.34 1035.04 1034.85 1034.75 1034.71 1034.67 1034.57 1034.38 1034.10 1033.75 1033.35 1032.96 1032.62 1032.34 1032.13 1031.99 1031.88 1031.78 1031.67 1031.53 1031.36 1031.16 1030.96 1030.76 1030.58 1030.43 1030.31 1030.20 1030.09 1029.98
1019.92 1019.20 1018.63 1018.37 1018.58 1019.35 1020.71 1022.60 1024.90 1027.43 1029.94 1032.25 1034.18 1035.62 1036.53 1036.96 1037.00 1036.77 1036.42 1036.06 1035.75 1035.55 1035.43 1035.36 1035.29 1035.15 1034.94 1034.62 1034.22 1033.77 1033.32 1032.90 1032.55 1032.27 1032.06 1031.90 1031.77 1031.64 1031.49 1031.32 1031.13 1030.92 1030.72 1030.54 1030.39 1030.27 1030.17 1030.09 1030.01
1020.43 1019.81 1019.34 1019.15 1019.39 1020.15 1021.45 1023.24 1025.41 1027.80 1030.19 1032.41 1034.29 1035.73 1036.69 1037.20 1037.33 1037.20 1036.94 1036.65 1036.39 1036.21 1036.09 1036.00 1035.89 1035.72 1035.46 1035.10 1034.66 1034.17 1033.66 1033.19 1032.78 1032.45 1032.19 1031.99 1031.82 1031.66 1031.50 1031.30 1031.09 1030.87 1030.66 1030.46 1030.29 1030.16 1030.07 1029.99 1029.93
1020.99 1020.51 1020.17 1020.08 1020.36 1021.09 1022.29 1023.93 1025.91 1028.09 1030.29 1032.35 1034.13 1035.53 1036.52 1037.11 1037.37 1037.38 1037.26 1037.08 1036.91 1036.78 1036.68 1036.58 1036.45 1036.24 1035.94 1035.54 1035.06 1034.52 1033.98 1033.48 1033.03 1032.66 1032.37 1032.14 1031.94 1031.75 1031.55 1031.33 1031.09 1030.83 1030.58 1030.35 1030.15 1030.00 1029.88 1029.79 1029.73
1021.56 1021.25 1021.05 1021.06 1021.39 1022.08 1023.17 1024.62 1026.37 1028.29 1030.25 1032.11 1033.75 1035.09 1036.09 1036.77 1037.16 1037.34 1037.38 1037.35 1037.30 1037.24 1037.18 1037.08 1036.92 1036.68 1036.34 1035.90 1035.38 1034.83 1034.27 1033.75 1033.29 1032.91 1032.60 1032.34 1032.12 1031.90 1031.66 1031.40 1031.12 1030.82 1030.52 1030.24 1029.99 1029.78 1029.63 1029.50 1029.41
1022.13 1021.97 1021.91 1022.02 1022.38 1023.04 1024.00 1025.27 1026.77 1028.42 1030.12 1031.75 1033.23 1034.50 1035.50 1036.26 1036.78 1037.13 1037.34 1037.47 1037.55 1037.58 1037.56 1037.47 1037.29 1037.02 1036.64 1036.16 1035.63 1035.06 1034.51 1033.99 1033.54 1033.16 1032.84 1032.57 1032.33 1032.08 1031.81 1031.50 1031.17 1030.82 1030.46 1030.13 1029.82 1029.56 1029.35 1029.17 1029.03
Thickness
5682 5685 5688 5687 5681 5676 5675 5680 5682 5681 5683 5685 5686 5688 5692 5692 5691 5686 5683 5686 5687 5688 5688 5688 5688 5689 5691 5692 5692 5693 5694 5695 5695 5696 5697 5698 5698 5699 5700 5701 5702 5702 5704 5705 5706 5707 5708 5708 5709
5679 5681 5682 5679 5672 5669 5672 5678 5676 5677 5678 5677 5678 5681 5684 5684 5682 5680 5679 5679 5681 5682 5683 5684 5684 5685 5686 5687 5688 5689 5690 5690 5691 5692 5693 5693 5694 5694 5695 5695 5696 5697 5698 5699 5701 5702 5703 5703 5703
5675 5677 5674 5670 5666 5670 5672 5672 5673 5671 5671 5672 5673 5674 5677 5676 5673 5673 5672 5672 5674 5676 5678 5678 5679 5681 5682 5683 5684 5684 5685 5685 5686 5687 5687 5688 5689 5689 5690 5690 5691 5692 5693 5694 5695 5696 5697 5698 5698
5671 5669 5667 5662 5661 5667 5669 5669 5667 5665 5665 5667 5669 5668 5667 5663 5664 5665 5664 5666 5668 5670 5671 5672 5673 5675 5676 5678 5679 5679 5680 5680 5681 5681 5682 5683 5683 5684 5684 5685 5685 5686 5687 5688 5689 5690 5691 5692 5693
5666 5662 5656 5653 5657 5662 5663 5663 5661 5662 5662 5663 5663 5665 5663 5656 5655 5657 5658 5659 5661 5663 5664 5665 5666 5668 5669 5671 5672 5674 5674 5675 5675 5676 5676 5677 5677 5678 5679 5679 5680 5680 5681 5682 5683 5684 5685 5686 5687
5656 5656 5651 5652 5656 5657 5657 5656 5656 5657 5658 5656 5656 5658 5657 5649 5649 5649 5651 5652 5653 5655 5656 5657 5658 5660 5662 5664 5666 5667 5668 5669 5669 5669 5670 5671 5671 5672 5673 5673 5674 5674 5675 5675 5676 5678 5679 5680 5681
5650 5648 5648 5650 5650 5651 5652 5652 5651 5653 5652 5651 5651 5652 5651 5643 5641 5642 5643 5644 5645 5646 5648 5650 5651 5653 5654 5656 5658 5659 5661 5662 5662 5663 5663 5664 5665 5666 5667 5667 5667 5668 5668 5669 5670 5671 5672 5674 5675
5647 5644 5640 5642 5644 5646 5647 5644 5644 5645 5646 5643 5643 5645 5645 5638 5634 5634 5635 5636 5637 5638 5640 5642 5644 5646 5647 5649 5649 5651 5652 5654 5655 5655 5655 5656 5657 5658 5659 5660 5660 5661 5661 5662 5663 5664 5665 5667 5668
5640 5635 5637 5640 5639 5640 5638 5636 5635 5634 5635 5633 5632 5633 5630 5628 5626 5626 5627 5628 5629 5630 5631 5633 5635 5637 5639 5641 5642 5643 5644 5645 5647 5648 5648 5648 5649 5651 5652 5651 5652 5653 5654 5655 5655 5656 5657 5659 5659
5631 5630 5635 5634 5634 5633 5630 5629 5629 5628 5628 5627 5625 5621 5618 5618 5619 5620 5621 5621 5621 5622 5623 5624 5627 5629 5631 5632 5634 5635 5636 5637 5638 5639 5640 5640 5641 5642 5643 5643 5644 5645 5646 5647 5647 5648 5650 5651 5652
5623 5624 5624 5621 5622 5621 5620 5620 5619 5622 5624 5625 5622 5618 5612 5610 5611 5613 5614 5614 5614 5614 5614 5616 5618 5620 5622 5624 5625 5626 5627 5628 5629 5630 5631 5632 5633 5633 5634 5635 5636 5637 5637 5639 5639 5641 5642 5643 5644
5614 5612 5612 5612 5609 5609 5611 5611 5610 5611 5615 5613 5612 5609 5605 5604 5604 5606 5607 5607 5607 5607 5607 5608 5609 5611 5613 5615 5616 5618 5618 5619 5620 5621 5622 5623 5624 5624 5625 5626 5627 5628 5629 5630 5631 5632 5634 5635 5636
5606 5604 5602 5601 5600 5600 5600 5601 5602 5604 5604 5601 5599 5598 5598 5599 5599 5598 5598 5598 5599 5599 5600 5600 5601 5603 5605 5606 5607 5608 5609 5610 5611 5611 5612 5613 5614 5614 5615 5617 5617 5618 5619 5621 5622 5623 5624 5626 5627
5599 5597 5596 5595 5595 5593 5592 5594 5593 5598 5594 5592 5592 5592 5592 5592 5592 5591 5591 5591 5592 5592 5592 5592 5593 5594 5596 5597 5598 5598 5599 5600 5601 5602 5602 5603 5604 5605 5606 5606 5607 5608 5609 5610 5612 5613 5614 5616 5617
5590 5590 5592 5591 5588 5586 5584 5589 5591 5591 5585 5585 5585 5585 5585 5585 5584 5584 5584 5584 5584 5584 5584 5584 5585 5585 5586 5587 5588 5588 5588 5590 5590 5591 5591 5593 5594 5595 5596 5597 5597 5597 5598 5600 5601 5602 5604 5605 5607
5585 5586 5589 5588 5581 5579 5578 5592 5591 5583 5579 5581 5582 5580 5579 5578 5577 5577 5576 5576 5576 5575 5575 5575 5576 5576 5576 5577 5577 5578 5579 5579 5579 5579 5580 5581 5582 5584 5585 5586 5586 5586 5587 5589 5590 5591 5593 5594 5596
5581 5583 5585 5583 5575 5573 5574 5583 5583 5574 5573 5575 5575 5574 5572 5571 5570 5569 5568 5568 5567 5567 5567 5567 5567 5567 5567 5567 5567 5567 5567 5568 5568 5569 5569 5569 5570 5572 5573 5574 5574 5575 5576 5577 5578 5580 5582 5583 5584
5578 5578 5576 5575 5571 5565 5567 5574 5574 5569 5565 5568 5568 5567 5565 5564 5563 5561 5559 5559 5558 5558 5558 5558 5559 5558 5557 5557 5557 5557 5556 5557 5557 5557 5557 5558 5559 5560 5561 5562 5562 5563 5564 5565 5566 5567 5569 5571 5572
5563 5564 5566 5567 5559 5555 5562 5565 5566 5563 5560 5561 5561 5560 5558 5556 5554 5552 5551 5550 5549 5549 5549 5550 5550 5549 5548 5549 5549 5548 5548 5547 5546 5546 5546 5546 5547 5547 5548 5549 5549 5550 5552 5553 5554 5555 5556 5557 5560
5551 5552 5557 5557 5547 5546 5552 5558 5561 5557 5553 5553 5553 5552 5550 5548 5545 5542 5541 5541 5541 5540 5540 5541 5541 5540 5539 5539 5538 5538 5537 5536 5535 5534 5534 5533 5534 5534 5535 5536 5536 5537 5539 5540 5541 5543 5544 5545 5547
5545 5545 5545 5542 5537 5533 5536 5558 5558 5554 5548 5545 5544 5542 5540 5538 5537 5534 5532 5530 5530 5530 5530 5530 5530 5529 5529 5528 5526 5526 5525 5524 5523 5523 5522 5521 5521 5521 5522 5523 5524 5525 5526 5528 5529 5530 5532 5534 5534
5540 5536 5530 5527 5529 5539 5530 5551 5562 5551 5544 5541 5538 5535 5532 5529 5526 5524 5522 5520 5520 5519 5518 5518 5518 5518 5518 5517 5516 5516 5516 5515 5514 5512 5511 5510 5509 5509 5510 5510 5511 5512 5513 5515 5516 5517 5520 5522 5524
5525 5518 5517 5517 5519 5521 5522 5524 5557 5540 5539 5537 5533 5527 5523 5519 5516 5514 5512 5510 5509 5507 5507 5506 5506 5506 5506 5505 5505 5505 5505 5504 5502 5501 5500 5499 5498 5498 5498 5498 5498 5500 5501 5503 5504 5504 5506 5509 5511
5506 5507 5506 5505 5510 5516 5520 5518 5546 5541 5531 5529 5524 5519 5513 5509 5506 5503 5501 5499 5497 5495 5494 5494 5494 5494 5494 5493 5493 5493 5493 5492 5491 5490 5489 5488 5488 5486 5486 5486 5487 5488 5489 5491 5492 5492 5494 5496 5498
5501 5508 5514 5515 5514 5524 5508 5506 5527 5523 5515 5511 5508 5505 5500 5497 5495 5493 5490 5489 5487 5484 5483 5482 5482 5482 5481 5481 5481 5481 5480 5480 5479 5479 5478 5477 5477 5476 5475 5474 5475 5476 5477 5478 5479 5480 5482 5484 5486
5494 5498 5504 5507 5515 5520 5496 5504 5519 5504 5496 5492 5489 5487 5485 5483 5482 5479 5478 5477 5475 5473 5472 5471 5470 5470 5469 5469 5469 5468 5467 5467 5467 5466 5466 5465 5465 5465 5464 5463 5463 5464 5464 5465 5466 5467 5469 5471 5473
5484 5486 5483 5483 5476 5482 5506 5504 5500 5491 5486 5481 5478 5476 5473 5471 5469 5468 5466 5464 5463 5461 5460 5458 5457 5457 5456 5456 5455 5455 5455 5454 5454 5453 5453 5453 5452 5452 5452 5452 5452 5452 5452 5452 5453 5455 5456 5458 5460
5472 5475 5470 5472 5477 5489 5501 5500 5504 5489 5485 5477 5471 5466 5462 5459 5457 5455 5454 5451 5449 5448 5446 5445 5445 5444 5444 5444 5443 5442 5442 5442 5442 5441 5441 5441 5440 5440 5440 5441 5440 5440 5440 5440 5441 5443 5443 5445 5447
5460 5458 5462 5465 5463 5474 5486 5500 5487 5482 5477 5469 5462 5455 5450 5447 5444 5442 5440 5437 5435 5435 5433 5432 5432 5431 5431 5430 5430 5429 5430 5429 5429 5429 5429 5428 5428 5428 5428 5428 5429 5429 5429 5429 5430 5431 5431 5432 5433
5454 5456 5454 5458 5455 5448 5462 5482 5469 5462 5459 5453 5449 5444 5438 5435 5431 5428 5426 5424 5422 5422 5421 5420 5419 5419 5418 5417 5417 5417 5417 5416 5417 5417 5416 5416 5416 5415 5415 5416 5416 5416 5416 5417 5417 5418 5418 5419 5421